Powrót do katalogu

FALCON-9 R/B

AktywnyHEO
NORAD 60087·ROCKET BODY·🇺🇸 United States

Wystrzelony Jun 20, 2024 z Cape Canaveral Space Force Station

Loading…

Następne Przeloty (najbliższe 24 godziny)

TLE

ŚwieżeSource: Space-Track

Epoka: Sep 13, 2026, 22:43 UTC

1 60087U 24115B   26256.94662189  .00000337  00000-0  67278-2 0  9995
2 60087  26.4998 254.3990 7929478  95.2941 348.8703  1.44182934 11730

Śledź FALCON-9 R/B w czasie rzeczywistym z AllMySat

Download on the App Store